When you browse on this site, cookies collect data to enhance your experience and personalize the content and advertising you see.
Visit our Privacy Policy to learn more. By continuing to use the site, you agree to this use of cookies and data.
  • în România
  • Lista ţărilor
  • Pe 7 zile
  • Temperatura apei
  • Hartă satelitară
  • Meteo pe hartă
  • Widget-uri
  • user-avatar
    Intrare

    Meteo pe oră la Semenovskoe

    Astăzi, 18 Februarie, Luni

    Timp Temperatura Precipitaţii Vânt Presiune Umiditate
    00:00 -6°C° 0 mm 6 m/s 743 mmHg 79%
    01:00 -6°C° 0 mm 6 m/s 744 mmHg 80%
    02:00 -7°C° 0 mm 4 m/s 744 mmHg 84%
    03:00 -7°C° 0 mm 4 m/s 745 mmHg 85%
    04:00 -7°C° 0 mm 4 m/s 746 mmHg 86%
    05:00 -8°C° 0 mm 4 m/s 747 mmHg 86%
    06:00 -8°C° 0 mm 4 m/s 748 mmHg 86%
    07:00 -8°C° 0 mm 4 m/s 748 mmHg 87%
    08:00 -9°C° 0 mm 4 m/s 749 mmHg 87%
    09:00 -8°C° 0 mm 4 m/s 749 mmHg 85%
    10:00 -8°C° 0 mm 4 m/s 750 mmHg 83%
    11:00 -8°C° 0 mm 4 m/s 750 mmHg 81%
    12:00 -7°C° 0 mm 4 m/s 751 mmHg 79%
    13:00 -7°C° 0 mm 4 m/s 751 mmHg 77%
    14:00 -5°C° 0 mm 3 m/s 751 mmHg 75%
    15:00 -6°C° 0 mm 3 m/s 751 mmHg 79%
    16:00 -7°C° 0 mm 2 m/s 752 mmHg 83%
    17:00 -8°C° 0 mm 2 m/s 752 mmHg 88%
    18:00 -7°C° 0 mm 1 m/s 752 mmHg 89%
    19:00 -8°C° 0 mm 1 m/s 752 mmHg 90%
    20:00 -9°C° 0 mm 1 m/s 752 mmHg 91%
    21:00 -9°C° 0 mm 1 m/s 752 mmHg 91%
    22:00 -9°C° 0 mm 1 m/s 752 mmHg 90%
    23:00 -10°C° 0 mm 2 m/s 752 mmHg 90%

    Mâine, 19 Februarie, Marţi

    Timp Temperatura Precipitaţii Vânt Presiune Umiditate
    00:00 -9°C° 0 mm 2 m/s 751 mmHg 88%
    01:00 -10°C° 0 mm 3 m/s 751 mmHg 86%
    02:00 -10°C° 0 mm 3 m/s 750 mmHg 84%
    03:00 -10°C° 0 mm 4 m/s 749 mmHg 83%
    04:00 -10°C° 0 mm 4 m/s 749 mmHg 81%
    05:00 -9°C° 0 mm 4 m/s 748 mmHg 80%
    06:00 -10°C° 0 mm 5 m/s 747 mmHg 77%
    07:00 -8°C° 0 mm 5 m/s 747 mmHg 75%
    08:00 -8°C° 0 mm 5 m/s 746 mmHg 73%
    09:00 -6°C° 0 mm 5 m/s 746 mmHg 73%
    10:00 -5°C° 0 mm 5 m/s 745 mmHg 74%
    11:00 -2°C° 0 mm 5 m/s 745 mmHg 75%
    12:00 -2°C° 0 mm 5 m/s 744 mmHg 77%
    13:00 -1°C° 0 mm 4 m/s 744 mmHg 79%
    14:00 -1°C° 0 mm 4 m/s 744 mmHg 81%
    15:00 -1°C° 0 mm 4 m/s 743 mmHg 83%
    16:00 -1°C° 0 mm 3 m/s 742 mmHg 85%
    17:00 -2°C° 0 mm 3 m/s 742 mmHg 87%
    18:00 -2°C° 0 mm 3 m/s 741 mmHg 87%
    19:00 -3°C° 0 mm 4 m/s 741 mmHg 88%
    20:00 -3°C° 0 mm 4 m/s 740 mmHg 88%
    21:00 -3°C° 0 mm 4 m/s 740 mmHg 88%
    22:00 -2°C° 0 mm 5 m/s 739 mmHg 88%
    23:00 -2°C° 0 mm 5 m/s 738 mmHg 88%

    Poimâine, 20 Februarie, Miercuri

    Timp Temperatura Precipitaţii Vânt Presiune Umiditate
    00:00 -2°C° 0 mm 5 m/s 738 mmHg 88%
    01:00 -1°C° 0 mm 5 m/s 737 mmHg 88%
    02:00 -1°C° 0 mm 5 m/s 736 mmHg 88%
    03:00 -1°C° 0 mm 5 m/s 736 mmHg 88%
    04:00 0°C° 0 mm 5 m/s 735 mmHg 89%
    05:00 0°C° 0 mm 5 m/s 734 mmHg 89%
    06:00 0°C° 0 mm 4 m/s 734 mmHg 89%
    07:00 0°C° 0 mm 4 m/s 734 mmHg 89%
    08:00 0°C° 0 mm 4 m/s 734 mmHg 90%
    09:00 0°C° 0 mm 4 m/s 735 mmHg 90%
    10:00 0°C° 0 mm 4 m/s 735 mmHg 90%
    11:00 +1°C° 0 mm 4 m/s 735 mmHg 91%
    12:00 +1°C° 0 mm 4 m/s 735 mmHg 90%
    13:00 +1°C° 0 mm 4 m/s 734 mmHg 89%
    14:00 +1°C° 0 mm 4 m/s 734 mmHg 88%
    15:00 0°C° 0 mm 4 m/s 734 mmHg 88%
    16:00 0°C° 0 mm 4 m/s 734 mmHg 87%
    17:00 -1°C° 0 mm 4 m/s 734 mmHg 86%
    18:00 -1°C° 0 mm 4 m/s 734 mmHg 86%
    19:00 -1°C° 0 mm 4 m/s 733 mmHg 86%
    20:00 -1°C° 0 mm 4 m/s 733 mmHg 86%
    21:00 -1°C° 0.2 mm 4 m/s 733 mmHg 87%
    22:00 -1°C° 0.2 mm 4 m/s 733 mmHg 87%
    23:00 -1°C° 0.2 mm 4 m/s 733 mmHg 88%

    21 Februarie, Joi

    Timp Temperatura Precipitaţii Vânt Presiune Umiditate
    00:00 -1°C° 0.2 mm 4 m/s 733 mmHg 87%
    01:00 -2°C° 0.2 mm 4 m/s 733 mmHg 86%
    02:00 -2°C° 0.2 mm 4 m/s 733 mmHg 85%
    03:00 -2°C° 0.1 mm 5 m/s 733 mmHg 85%
    04:00 -4°C° 0.1 mm 5 m/s 734 mmHg 84%
    05:00 -4°C° 0.1 mm 6 m/s 734 mmHg 84%
    06:00 -5°C° 0.1 mm 6 m/s 734 mmHg 82%
    07:00 -5°C° 0.1 mm 6 m/s 735 mmHg 81%
    08:00 -6°C° 0.1 mm 6 m/s 736 mmHg 79%
    09:00 -6°C° 0.1 mm 6 m/s 736 mmHg 77%
    10:00 -8°C° 0.1 mm 7 m/s 737 mmHg 75%
    11:00 -9°C° 0.1 mm 7 m/s 738 mmHg 73%
    12:00 -9°C° 0.1 mm 7 m/s 739 mmHg 73%
    13:00 -9°C° 0.1 mm 7 m/s 740 mmHg 73%
    14:00 -9°C° 0.1 mm 7 m/s 740 mmHg 74%
    15:00 -11°C° 0.1 mm 7 m/s 741 mmHg 74%
    16:00 -11°C° 0.1 mm 7 m/s 742 mmHg 73%
    17:00 -12°C° 0.1 mm 7 m/s 743 mmHg 73%
    18:00 -11°C° 0 mm 6 m/s 744 mmHg 73%
    19:00 -11°C° 0 mm 6 m/s 745 mmHg 73%
    20:00 -12°C° 0 mm 6 m/s 746 mmHg 73%
    21:00 -12°C° 0 mm 6 m/s 747 mmHg 73%
    22:00 -12°C° 0 mm 6 m/s 748 mmHg 74%
    23:00 -14°C° 0 mm 6 m/s 749 mmHg 75%

    22 Februarie, Vineri

    Timp Temperatura Precipitaţii Vânt Presiune Umiditate
    00:00 -13°C° 0 mm 5 m/s 749 mmHg 76%
    01:00 -14°C° 0 mm 5 m/s 750 mmHg 77%
    02:00 -14°C° 0 mm 5 m/s 751 mmHg 79%
    03:00 -14°C° 0 mm 5 m/s 752 mmHg 79%
    04:00 -14°C° 0 mm 5 m/s 752 mmHg 79%
    05:00 -15°C° 0 mm 4 m/s 753 mmHg 79%
    06:00 -15°C° 0 mm 4 m/s 753 mmHg 80%
    07:00 -15°C° 0 mm 5 m/s 754 mmHg 81%
    08:00 -15°C° 0 mm 5 m/s 755 mmHg 82%
    09:00 -14°C° 0 mm 5 m/s 756 mmHg 80%
    10:00 -13°C° 0 mm 5 m/s 756 mmHg 78%
    11:00 -12°C° 0 mm 5 m/s 756 mmHg 76%
    12:00 -12°C° 0 mm 5 m/s 757 mmHg 74%
    13:00 -12°C° 0 mm 5 m/s 757 mmHg 72%
    14:00 -11°C° 0 mm 5 m/s 757 mmHg 69%
    15:00 -11°C° 0 mm 4 m/s 758 mmHg 73%
    16:00 -11°C° 0 mm 4 m/s 758 mmHg 76%
    17:00 -12°C° 0 mm 4 m/s 758 mmHg 79%
    18:00 -12°C° 0 mm 4 m/s 759 mmHg 82%
    19:00 -13°C° 0 mm 3 m/s 759 mmHg 84%
    20:00 -14°C° 0 mm 3 m/s 760 mmHg 87%
    21:00 -14°C° 0 mm 3 m/s 760 mmHg 88%
    22:00 -14°C° 0 mm 3 m/s 760 mmHg 90%
    23:00 -14°C° 0 mm 2 m/s 760 mmHg 91%

    23 Februarie, Sâmbătă

    Timp Temperatura Precipitaţii Vânt Presiune Umiditate
    00:00 -14°C° 0 mm 2 m/s 760 mmHg 92%
    01:00 -14°C° 0 mm 2 m/s 760 mmHg 92%
    02:00 -15°C° 0 mm 2 m/s 760 mmHg 92%
    03:00 -15°C° 0 mm 2 m/s 760 mmHg 92%
    04:00 -13°C° 0 mm 1 m/s 760 mmHg 92%
    05:00 -13°C° 0 mm 1 m/s 759 mmHg 92%
    06:00 -13°C° 0 mm 1 m/s 759 mmHg 92%
    07:00 -12°C° 0 mm 1 m/s 758 mmHg 91%
    08:00 -12°C° 0 mm 1 m/s 758 mmHg 90%
    09:00 -11°C° 0 mm 1 m/s 757 mmHg 88%
    10:00 -9°C° 0 mm 1 m/s 757 mmHg 85%
    11:00 -9°C° 0 mm 2 m/s 756 mmHg 82%
    12:00 -9°C° 0 mm 2 m/s 755 mmHg 81%
    13:00 -8°C° 0 mm 2 m/s 755 mmHg 80%
    14:00 -7°C° 0 mm 2 m/s 754 mmHg 78%
    15:00 -7°C° 0 mm 2 m/s 754 mmHg 81%
    16:00 -8°C° 0 mm 2 m/s 753 mmHg 84%
    17:00 -8°C° 0 mm 2 m/s 753 mmHg 87%
    18:00 -8°C° 0 mm 2 m/s 753 mmHg 89%
    19:00 -8°C° 0 mm 2 m/s 753 mmHg 90%
    20:00 -8°C° 0 mm 2 m/s 753 mmHg 92%
    21:00 -8°C° 0.1 mm 2 m/s 753 mmHg 92%
    22:00 -8°C° 0.1 mm 2 m/s 753 mmHg 92%
    23:00 -8°C° 0.1 mm 2 m/s 752 mmHg 92%
    Arată mai mult